TimeEST,TemperatureF,Dew PointF,Humidity,Sea Level PressureIn,VisibilityMPH,Wind Direction,Wind SpeedMPH,Gust SpeedMPH,PrecipitationIn,Events,Conditions,WindDirDegrees,DateUTC
12:15 AM,37.4,37.4,100,29.95,0.2,SW,5.8,-,N/A,Fog,Fog,230,2012-12-25 05:15:00
12:35 AM,41.0,41.0,100,29.95,0.2,SW,5.8,-,N/A,Fog,Fog,220,2012-12-25 05:35:00
12:55 AM,41.0,41.0,100,29.95,0.2,SW,6.9,-,N/A,Fog,Fog,230,2012-12-25 05:55:00
1:15 AM,39.2,39.2,100,29.95,0.2,SW,4.6,-,N/A,Fog,Fog,230,2012-12-25 06:15:00
1:35 AM,37.4,37.4,100,29.96,0.2,WSW,4.6,-,N/A,Fog,Fog,250,2012-12-25 06:35:00
1:55 AM,41.0,41.0,100,29.96,0.2,Calm,Calm,-,N/A,Fog,Fog,0,2012-12-25 06:55:00
2:15 AM,41.0,41.0,100,29.97,0.8,SW,3.5,-,N/A,,Overcast,220,2012-12-25 07:15:00
2:35 AM,41.0,41.0,100,29.97,0.5,SW,3.5,-,N/A,Fog,Fog,220,2012-12-25 07:35:00
2:55 AM,39.2,39.2,100,29.97,0.5,Calm,Calm,-,N/A,Fog,Fog,0,2012-12-25 07:55:00
3:15 AM,41.0,41.0,100,29.98,2.5,Calm,Calm,-,N/A,,Overcast,0,2012-12-25 08:15:00
3:35 AM,41.0,41.0,100,29.98,4.0,Calm,Calm,-,N/A,,Overcast,0,2012-12-25 08:35:00
3:55 AM,41.0,41.0,100,29.98,5.0,Calm,Calm,-,N/A,,Overcast,0,2012-12-25 08:55:00
4:15 AM,41.0,41.0,100,29.98,5.0,Calm,Calm,-,N/A,,Overcast,0,2012-12-25 09:15:00
4:35 AM,41.0,41.0,100,29.98,4.0,Calm,Calm,-,N/A,,Overcast,0,2012-12-25 09:35:00
4:55 AM,41.0,41.0,100,29.98,5.0,Calm,Calm,-,N/A,,Overcast,0,2012-12-25 09:55:00
5:15 AM,41.0,41.0,100,29.98,5.0,NW,3.5,-,N/A,,Overcast,320,2012-12-25 10:15:00
5:35 AM,41.0,41.0,100,30.00,5.0,Calm,Calm,-,N/A,,Overcast,0,2012-12-25 10:35:00
5:55 AM,41.0,41.0,100,30.00,5.0,Calm,Calm,-,N/A,,Overcast,0,2012-12-25 10:55:00
6:15 AM,41.0,41.0,100,30.00,5.0,North,5.8,-,N/A,,Overcast,360,2012-12-25 11:15:00
6:35 AM,41.0,41.0,100,30.02,5.0,NNW,5.8,-,N/A,,Mostly Cloudy,340,2012-12-25 11:35:00
6:55 AM,41.0,41.0,100,30.01,5.0,North,6.9,-,N/A,,Mostly Cloudy,350,2012-12-25 11:55:00
7:15 AM,39.2,39.2,100,30.02,4.0,NNW,5.8,-,N/A,,Scattered Clouds,340,2012-12-25 12:15:00
7:35 AM,39.2,39.2,100,30.02,1.5,North,3.5,-,N/A,,Mostly Cloudy,350,2012-12-25 12:35:00
7:55 AM,39.2,39.2,100,30.03,5.0,North,3.5,-,N/A,,Mostly Cloudy,350,2012-12-25 12:55:00
8:15 AM,39.2,39.2,100,30.02,5.0,NNE,4.6,-,N/A,,Mostly Cloudy,20,2012-12-25 13:15:00
8:35 AM,41.0,41.0,100,30.02,3.0,NE,5.8,-,N/A,,Overcast,40,2012-12-25 13:35:00
8:55 AM,41.0,41.0,100,30.02,4.0,Calm,Calm,-,N/A,,Overcast,0,2012-12-25 13:55:00
9:15 AM,41.0,41.0,100,30.03,5.0,NNE,3.5,-,N/A,,Overcast,30,2012-12-25 14:15:00
9:35 AM,41.0,41.0,100,30.04,7.0,Calm,Calm,-,N/A,,Overcast,0,2012-12-25 14:35:00
9:55 AM,41.0,41.0,100,30.05,7.0,Calm,Calm,-,N/A,,Overcast,0,2012-12-25 14:55:00
10:15 AM,41.0,41.0,100,30.07,10.0,Calm,Calm,-,N/A,,Overcast,0,2012-12-25 15:15:00
10:35 AM,41.0,41.0,100,30.07,10.0,Calm,Calm,-,N/A,,Overcast,0,2012-12-25 15:35:00
10:55 AM,42.8,41.0,93,30.05,10.0,Calm,Calm,-,N/A,,Overcast,0,2012-12-25 15:55:00
11:15 AM,42.8,41.0,93,30.04,10.0,ESE,4.6,-,N/A,,Overcast,120,2012-12-25 16:15:00
11:35 AM,42.8,42.8,100,30.02,10.0,Calm,Calm,-,N/A,,Overcast,0,2012-12-25 16:35:00
11:55 AM,42.8,41.0,93,30.02,10.0,Calm,Calm,-,N/A,,Overcast,0,2012-12-25 16:55:00
12:15 PM,42.8,41.0,93,30.01,10.0,NNE,3.5,-,N/A,,Overcast,30,2012-12-25 17:15:00
12:35 PM,42.8,42.8,100,30.00,10.0,Calm,Calm,-,N/A,,Overcast,0,2012-12-25 17:35:00
1:15 PM,44.6,41.0,87,30.01,10.0,Calm,Calm,-,N/A,,Overcast,0,2012-12-25 18:15:00
1:35 PM,44.6,42.8,93,30.00,10.0,Calm,Calm,-,N/A,,Overcast,0,2012-12-25 18:35:00
1:55 PM,44.6,41.0,87,30.00,10.0,East,4.6,-,N/A,,Overcast,100,2012-12-25 18:55:00
2:15 PM,44.6,41.0,87,30.02,10.0,South,4.6,-,N/A,,Overcast,180,2012-12-25 19:15:00
2:35 PM,44.6,41.0,87,30.01,10.0,Calm,Calm,-,N/A,,Overcast,0,2012-12-25 19:35:00
2:55 PM,44.6,41.0,87,30.02,10.0,Calm,Calm,-,N/A,,Scattered Clouds,0,2012-12-25 19:55:00
3:15 PM,44.6,41.0,87,30.02,10.0,NE,3.5,-,N/A,,Clear,40,2012-12-25 20:15:00
3:35 PM,44.6,41.0,87,30.01,10.0,Calm,Calm,-,N/A,,Scattered Clouds,0,2012-12-25 20:35:00
3:55 PM,44.6,42.8,93,30.00,10.0,NE,3.5,-,N/A,,Clear,40,2012-12-25 20:55:00
4:15 PM,42.8,42.8,100,29.99,10.0,NE,3.5,-,N/A,,Clear,40,2012-12-25 21:15:00
4:35 PM,42.8,41.0,93,29.98,10.0,NE,3.5,-,N/A,,Clear,40,2012-12-25 21:35:00
4:55 PM,42.8,41.0,93,29.98,10.0,NE,4.6,-,N/A,,Clear,40,2012-12-25 21:55:00
5:15 PM,42.8,41.0,93,29.98,10.0,Calm,Calm,-,N/A,,Clear,0,2012-12-25 22:15:00
5:35 PM,42.8,41.0,93,29.98,10.0,Calm,Calm,-,N/A,,Mostly Cloudy,0,2012-12-25 22:35:00
5:55 PM,42.8,41.0,93,29.98,10.0,NNE,4.6,-,N/A,,Overcast,20,2012-12-25 22:55:00
6:15 PM,41.0,41.0,100,29.98,7.0,NNE,5.8,-,N/A,,Mostly Cloudy,30,2012-12-25 23:15:00
6:35 PM,41.0,41.0,100,30.00,5.0,NNE,4.6,-,N/A,,Overcast,30,2012-12-25 23:35:00
6:55 PM,41.0,41.0,100,29.99,2.0,NE,4.6,-,N/A,,Overcast,50,2012-12-25 23:55:00
7:15 PM,41.0,41.0,100,29.98,0.5,NNE,4.6,-,N/A,Fog,Fog,30,2012-12-26 00:15:00
7:35 PM,39.2,39.2,100,29.97,0.2,NE,5.8,-,N/A,Fog,Fog,40,2012-12-26 00:35:00
7:55 PM,39.2,39.2,100,29.96,0.2,NE,6.9,-,N/A,Fog,Fog,40,2012-12-26 00:55:00
8:15 PM,39.2,39.2,100,29.95,0.2,NNE,6.9,-,N/A,Fog,Fog,30,2012-12-26 01:15:00
8:35 PM,37.4,37.4,100,29.94,0.2,NNE,8.1,-,N/A,Fog,Fog,30,2012-12-26 01:35:00
8:55 PM,37.4,37.4,100,29.95,0.2,ENE,3.5,-,N/A,Fog,Fog,70,2012-12-26 01:55:00
9:15 PM,37.4,37.4,100,29.93,0.2,NE,5.8,-,N/A,Fog,Fog,50,2012-12-26 02:15:00
9:35 PM,37.4,37.4,100,29.94,0.2,NE,5.8,-,N/A,Fog,Fog,40,2012-12-26 02:35:00
9:55 PM,37.4,37.4,100,29.95,0.2,NE,3.5,-,N/A,Fog,Fog,40,2012-12-26 02:55:00
10:15 PM,37.4,37.4,100,29.95,0.2,North,4.6,-,N/A,Fog,Fog,10,2012-12-26 03:15:00
11:35 PM,37.4,37.4,100,29.92,0.2,NE,5.8,-,N/A,Rain,Light Rain,40,2012-12-26 04:35:00
11:55 PM,37.4,37.4,100,29.92,0.2,Calm,Calm,-,0.01,Rain,Light Rain,0,2012-12-26 04:55:00